GW2844 Weather Reports


time (UTC)temp
C
wind
direction
speed
KPH
gust
KPH
rain 1hr
cm
rain 24hr
cm
rain mn
cm
humidity
%
barometer
mb
20260505152904 12 180 3.2 3.2 0.00 0.00 0.00 86 1016.4
20260505152356 12 180 4.8 6.4 0.00 0.00 0.00 86 1016.4
20260505151855 12 234 3.2 3.2 0.00 0.00 0.00 86 1016.7
20260505151352 12 186 3.2 3.2 0.00 0.00 0.00 85 1016.0
20260505150849 12 258 4.8 4.8 0.00 0.00 0.00 86 1016.0
20260505150346 12 150 0.0 0.0 0.00 0.00 0.00 85 1016.4
20260505140311 12 216 4.8 4.8 0.00 0.00 0.00 86 1015.7
20260505130234 12 223 4.8 4.8 0.00 0.00 0.00 86 1015.0
20260505124725 12 245 6.4 6.4 0.00 0.00 0.00 86 1015.0
20260505124222 12 150 3.2 3.2 0.00 0.00 0.00 86 1015.4
20260505123717 12 146 4.8 4.8 0.00 0.00 0.00 87 1014.7
20260505123214 12 145 4.8 4.8 0.00 0.00 0.00 87 1014.7
20260505122711 12 240 1.6 1.6 0.00 0.00 0.00 87 1015.0
20260505122208 12 168 0.0 0.0 0.00 0.00 0.00 87 1014.7
20260505121704 12 252 3.2 3.2 0.00 0.00 0.00 87 1015.0
20260505121201 12 234 4.8 4.8 0.00 0.00 0.00 87 1014.7
20260505120657 12 246 3.2 3.2 0.00 0.00 0.00 87 1015.0
20260505120153 12 150 3.2 3.2 0.00 0.00 0.00 87 1014.7
20260505115647 12 138 3.2 3.2 0.00 0.00 0.00 87 1014.7
20260505115145 12 168 0.0 0.0 0.00 0.00 0.00 87 1014.7
20260505114642 12 150 3.2 3.2 0.00 0.00 0.00 87 1014.7
20260505114138 12 228 0.0 0.0 0.00 0.00 0.00 87 1014.7
20260505113635 12 150 4.8 4.8 0.00 0.00 0.00 87 1014.7
20260505113131 12 174 3.2 3.2 0.00 0.00 0.00 87 1014.7
20260505112627 12 240 3.2 3.2 0.00 0.00 0.00 87 1014.7
20260505112126 12 240 0.0 0.0 0.00 0.00 0.00 87 1015.0
20260505111620 12 216 6.4 6.4 0.00 0.00 0.00 87 1014.7
20260505111116 12 222 3.2 3.2 0.00 0.00 0.00 87 1014.7
20260505110612 12 222 3.2 3.2 0.00 0.00 0.00 87 1014.4
20260505110109 12 222 0.0 0.0 0.00 0.00 0.00 87 1014.7
20260505102045 12 234 6.4 6.4 0.00 0.00 0.00 88 1014.4
20260505101543 12 150 3.2 3.2 0.00 0.00 0.00 87 1014.7
20260505101039 12 251 4.8 4.8 0.00 0.00 0.00 87 1014.4
20260505100536 12 162 1.6 1.6 0.00 0.00 0.00 87 1014.4
20260505100033 12 228 0.0 0.0 0.00 0.00 0.00 87 1014.0
20260505095529 12 246 6.4 6.4 0.00 0.00 0.00 87 1014.4
20260505095026 12 223 3.2 3.2 0.00 0.00 0.00 88 1014.0
20260505094522 12 228 0.0 0.0 0.00 0.00 0.00 88 1014.4
20260505094019 12 222 0.0 0.0 0.00 0.00 0.00 88 1014.4
20260505093515 12 222 1.6 1.6 0.00 0.00 0.00 88 1014.4
20260505093013 12 162 6.4 6.4 0.00 0.00 0.00 88 1014.4
20260505092510 12 222 6.4 6.4 0.00 0.00 0.00 88 1014.4
20260505092008 12 230 4.8 4.8 0.00 0.00 0.00 88 1014.0
20260505091505 12 228 3.2 3.2 0.00 0.00 0.00 88 1014.0
20260505091003 12 144 0.0 0.0 0.00 0.00 0.00 88 1014.0
20260505090500 12 180 0.0 0.0 0.00 0.00 0.00 88 1014.0
20260505085958 12 228 4.8 6.4 0.00 0.00 0.00 88 1013.7
20260505085456 12 222 0.0 0.0 0.00 0.00 0.00 88 1014.0
20260505084954 12 234 0.0 0.0 0.00 0.00 0.00 88 1013.7
20260505084452 12 228 4.8 4.8 0.00 0.00 0.00 88 1013.7
20260505083949 12 222 4.8 6.4 0.00 0.00 0.00 88 1014.0
20260505083446 11 228 3.2 3.2 0.00 0.00 0.00 89 1013.7
20260505082942 11 156 0.0 0.0 0.00 0.00 0.00 89 1014.0
20260505082438 11 234 6.4 6.4 0.00 0.00 0.00 89 1013.7
20260505081936 11 216 3.2 3.2 0.00 0.00 0.00 89 1013.7
20260505081432 11 204 3.2 3.2 0.00 0.00 0.00 89 1013.7
20260505080929 11 234 3.2 3.2 0.00 0.00 0.00 89 1013.7
20260505080425 11 210 0.0 0.0 0.00 0.00 0.00 89 1013.7
20260505075920 11 240 3.2 3.2 0.00 0.00 0.00 89 1013.7
20260505075417 11 216 0.0 0.0 0.00 0.00 0.00 89 1013.7
20260505074915 11 234 0.0 0.0 0.00 0.00 0.00 89 1013.3
20260505074412 12 180 0.0 0.0 0.00 0.00 0.00 89 1013.3
20260505073909 12 235 4.8 4.8 0.00 0.00 0.00 89 1013.3
20260505073407 12 228 1.6 1.6 0.00 0.00 0.00 89 1013.3
20260505072904 12 216 0.0 0.0 0.00 0.00 0.00 89 1013.3
20260505072400 12 210 0.0 0.0 0.00 0.00 0.00 89 1013.3
20260505071856 12 210 6.4 6.4 0.00 0.00 0.00 88 1013.3
20260505071352 12 210 0.0 0.0 0.00 0.00 0.00 89 1013.3
20260505070851 12 154 0.0 0.0 0.00 0.00 0.00 89 1013.3
20260505070347 12 150 3.2 3.2 0.00 0.00 0.00 89 1013.3
20260505065842 12 222 0.0 0.0 0.00 0.00 0.00 88 1013.3
20260505065339 12 174 3.2 3.2 0.00 0.00 0.00 89 1013.3
20260505064836 12 204 0.0 0.0 0.00 0.00 0.00 88 1013.3
20260505064333 12 222 8.0 8.0 0.00 0.00 0.00 88 1013.3
20260505063832 12 246 3.2 3.2 0.00 0.00 0.00 88 1013.0
20260505063327 12 216 4.8 6.4 0.00 0.00 0.00 88 1013.0
20260505062824 12 222 11.3 12.9 0.00 0.00 0.00 88 1013.0
20260505062321 12 246 4.8 4.8 0.00 0.00 0.00 88 1012.7
20260505061818 12 258 8.0 9.7 0.00 0.00 0.00 87 1012.7
20260505061316 12 216 11.3 12.9 0.00 0.00 0.00 87 1012.7
20260505060813 12 234 14.5 16.1 0.00 0.00 0.00 87 1012.7
20260505060310 12 216 12.9 12.9 0.00 0.00 0.00 87 1012.3
20260505055806 12 204 11.3 11.3 0.00 0.00 0.00 87 1012.3
20260505055303 12 264 4.8 6.4 0.00 0.00 0.00 87 1012.7
20260505054800 12 258 8.0 8.0 0.00 0.00 0.00 87 1012.7
20260505054257 12 234 6.4 8.0 0.00 0.00 0.00 86 1012.3
20260505053755 12 216 8.0 8.0 0.00 0.00 0.00 87 1012.7
20260505053252 12 210 6.4 8.0 0.00 0.00 0.00 86 1012.7
20260505052749 12 198 4.8 4.8 0.00 0.00 0.00 86 1012.7
20260505052246 12 186 8.0 8.0 0.00 0.00 0.00 86 1012.3
20260505051742 12 198 3.2 3.2 0.00 0.00 0.00 86 1012.3
20260505051240 13 222 3.2 3.2 0.00 0.00 0.00 86 1012.7
20260505050738 13 192 4.8 4.8 0.00 0.00 0.00 85 1012.0
20260505050237 13 229 9.7 9.7 0.00 0.00 0.00 85 1012.0
20260505041706 13 222 6.4 6.4 0.00 0.00 0.00 82 1011.6
20260505041203 13 222 6.4 8.0 0.00 0.00 0.00 82 1011.6
20260505040701 14 222 6.4 6.4 0.00 0.00 0.00 82 1011.6
20260505040158 14 223 4.8 6.4 0.00 0.00 0.00 81 1011.6
20260505035654 14 218 6.4 6.4 0.00 0.00 0.00 80 1011.6
20260505035150 14 234 6.4 6.4 0.00 0.00 0.00 80 1011.6
20260505034647 15 234 9.7 9.7 0.00 0.00 0.00 79 1011.3
20260505034144 15 234 4.8 4.8 0.00 0.00 0.00 79 1011.3
20260505033640 15 228 3.2 3.2 0.00 0.00 0.00 78 1011.3
20260505033139 15 250 8.0 9.7 0.00 0.00 0.00 77 1011.3
20260505032636 15 252 8.0 9.7 0.00 0.00 0.00 77 1011.3
20260505032127 16 252 8.0 9.7 0.00 0.00 0.00 75 1011.3
20260505031624 16 258 9.7 9.7 0.00 0.00 0.00 75 1011.3
20260505031120 16 263 9.7 9.7 0.00 0.00 0.00 74 1011.0
20260505030618 16 249 12.9 16.1 0.00 0.00 0.00 73 1011.3
20260505030113 17 269 8.0 9.7 0.00 0.00 0.00 72 1011.0
20260505025609 17 259 12.9 14.5 0.00 0.00 0.00 71 1011.0
20260505025108 17 251 9.7 9.7 0.00 0.00 0.00 71 1011.0
20260505024605 17 212 9.7 9.7 0.00 0.00 0.00 69 1010.6
20260505024103 18 283 16.1 17.7 0.00 0.00 0.00 68 1010.6
20260505023600 18 234 9.7 9.7 0.00 0.00 0.00 67 1011.0
20260505023057 18 258 17.7 19.3 0.00 0.00 0.00 67 1010.6
20260505022554 18 270 9.7 9.7 0.00 0.00 0.00 66 1010.6
20260505022051 19 222 14.5 16.1 0.00 0.00 0.00 65 1010.6
20260505021548 19 262 9.7 9.7 0.00 0.00 0.00 65 1010.6
20260505021045 20 234 4.8 6.4 0.00 0.00 0.00 63 1010.6
20260505020544 20 236 8.0 8.0 0.00 0.00 0.00 64 1010.6
20260505020042 20 246 9.7 9.7 0.00 0.00 0.00 63 1010.6
20260505015539 20 260 14.5 16.1 0.00 0.00 0.00 63 1010.6
20260505015035 20 262 8.0 9.7 0.00 0.00 0.00 62 1010.6
20260505014532 20 249 12.9 14.5 0.00 0.00 0.00 62 1010.6
20260505014030 20 228 9.7 9.7 0.00 0.00 0.00 62 1010.6
20260505013527 20 266 14.5 16.1 0.00 0.00 0.00 62 1010.6
20260505013024 21 231 8.0 9.7 0.00 0.00 0.00 61 1010.6
20260505012522 21 254 11.3 12.9 0.00 0.00 0.00 61 1010.6
20260505012019 21 246 9.7 9.7 0.00 0.00 0.00 60 1010.6
20260505011514 21 267 9.7 11.3 0.00 0.00 0.00 60 1010.3
20260505011011 21 252 8.0 9.7 0.00 0.00 0.00 58 1010.6
20260505010507 22 259 8.0 9.7 0.00 0.00 0.00 56 1010.6
20260505010004 22 272 9.7 11.3 0.00 0.00 0.00 57 1010.3
20260505005500 22 226 11.3 11.3 0.00 0.00 0.00 56 1010.3
20260505004958 22 264 9.7 9.7 0.00 0.00 0.00 57 1010.3
20260505004454 23 233 8.0 9.7 0.00 0.00 0.00 56 1010.6
20260505003951 22 282 8.0 9.7 0.00 0.00 0.00 57 1010.6
20260505003448 23 210 3.2 3.2 0.00 0.00 0.00 56 1010.3
20260505002944 23 249 9.7 9.7 0.00 0.00 0.00 56 1010.6
20260505002441 23 246 9.7 9.7 0.00 0.00 0.00 57 1010.3
20260505001939 23 254 16.1 17.7 0.00 0.00 0.00 55 1010.3
20260505001436 23 286 9.7 11.3 0.00 0.00 0.00 56 1010.3
20260505000933 23 254 11.3 11.3 0.00 0.00 0.00 56 1010.3
20260505000431 23 210 6.4 6.4 0.00 0.00 0.00 54 1010.3
20260504235928 23 258 9.7 11.3 0.00 0.00 0.00 54 1010.3
20260504235425 23 210 11.3 11.3 0.00 0.00 0.00 53 1010.3
20260504234921 23 264 4.8 4.8 0.00 0.00 0.00 55 1010.3
20260504234419 23 220 6.4 6.4 0.00 0.00 0.00 54 1010.3
20260504233915 24 210 8.0 8.0 0.00 0.00 0.00 54 1010.3
20260504233411 23 255 6.4 8.0 0.00 0.00 0.00 55 1010.3
20260504232908 23 252 6.4 8.0 0.00 0.00 0.00 56 1010.6
20260504232405 23 258 9.7 9.7 0.00 0.00 0.00 57 1010.3
20260504231902 23 264 11.3 11.3 0.00 0.00 0.00 56 1010.6
20260504231358 22 239 8.0 9.7 0.00 0.00 0.00 58 1011.0
20260504230855 23 270 11.3 12.9 0.00 0.00 0.00 57 1010.6
20260504230352 23 258 4.8 4.8 0.00 0.00 0.00 57 1011.0
20260504225851 23 216 8.0 9.7 0.00 0.00 0.00 56 1010.6
20260504225347 23 239 9.7 9.7 0.00 0.00 0.00 57 1011.0
20260504224845 23 291 8.0 9.7 0.00 0.00 0.00 55 1010.6
20260504224341 22 288 6.4 6.4 0.00 0.00 0.00 58 1011.0
20260504223838 22 258 11.3 12.9 0.00 0.00 0.00 58 1011.0
20260504223333 22 237 11.3 11.3 0.00 0.00 0.00 58 1011.0
20260504222830 22 275 11.3 11.3 0.00 0.00 0.00 58 1011.3
20260504222327 23 264 14.5 16.1 0.00 0.00 0.00 57 1011.3
20260504221826 22 218 9.7 9.7 0.00 0.00 0.00 58 1011.0
20260504221322 22 248 9.7 9.7 0.00 0.00 0.00 60 1011.0
20260504220819 22 260 11.3 11.3 0.00 0.00 0.00 60 1011.3
20260504220316 22 266 9.7 11.3 0.00 0.00 0.00 60 1011.3
20260504215813 22 239 9.7 9.7 0.00 0.00 0.00 61 1011.3
20260504215309 22 240 6.4 6.4 0.00 0.00 0.00 62 1011.3
20260504214805 22 269 8.0 8.0 0.00 0.00 0.00 63 1011.3
20260504214303 22 272 8.0 9.7 0.00 0.00 0.00 59 1011.3
20260504213759 22 281 11.3 11.3 0.00 0.00 0.00 62 1011.3
20260504213255 21 240 8.0 9.7 0.00 0.00 0.00 62 1011.3
20260504212753 21 252 8.0 9.7 0.00 0.00 0.00 62 1011.3
20260504212249 22 264 14.5 14.5 0.00 0.00 0.00 62 1011.6
20260504211746 21 263 14.5 14.5 0.00 0.00 0.00 62 1011.3
20260504211242 21 248 9.7 11.3 0.00 0.00 0.00 62 1011.3
20260504210740 22 300 8.0 9.7 0.00 0.00 0.00 62 1011.6
20260504210237 21 274 11.3 11.3 0.00 0.00 0.00 62 1011.6
20260504205734 22 219 6.4 6.4 0.00 0.00 0.00 62 1011.6
20260504205232 22 272 8.0 8.0 0.00 0.00 0.00 63 1011.6
20260504204730 21 258 6.4 6.4 0.00 0.00 0.00 62 1011.6
20260504204228 21 252 11.3 11.3 0.00 0.00 0.00 63 1011.6
20260504203727 22 229 12.9 14.5 0.00 0.00 0.00 62 1011.6
20260504203224 22 275 6.4 8.0 0.00 0.00 0.00 61 1011.6
20260504202723 21 210 3.2 3.2 0.00 0.00 0.00 63 1012.0
20260504202221 21 224 12.9 12.9 0.00 0.00 0.00 62 1011.6
20260504201718 21 224 6.4 8.0 0.00 0.00 0.00 60 1011.6
20260504201215 21 255 9.7 9.7 0.00 0.00 0.00 64 1011.6
20260504200713 21 252 11.3 11.3 0.00 0.00 0.00 64 1012.0
20260504200209 20 222 8.0 8.0 0.00 0.00 0.00 65 1012.0
20260504195705 21 218 6.4 6.4 0.00 0.00 0.00 65 1012.0
20260504195201 20 216 4.8 4.8 0.00 0.00 0.00 64 1012.0
20260504194658 21 219 4.8 4.8 0.00 0.00 0.00 62 1011.6
20260504194154 20 244 11.3 11.3 0.00 0.00 0.00 63 1012.0
20260504193651 20 210 6.4 6.4 0.00 0.00 0.00 63 1012.0
20260504193149 20 219 6.4 6.4 0.00 0.00 0.00 64 1012.0
20260504192646 20 216 11.3 11.3 0.00 0.00 0.00 67 1012.0
20260504192144 20 269 11.3 12.9 0.00 0.00 0.00 66 1012.0
20260504191643 20 210 8.0 8.0 0.00 0.00 0.00 65 1012.0
20260504191138 20 276 4.8 4.8 0.00 0.00 0.00 65 1012.0
20260504190634 19 133 6.4 6.4 0.00 0.00 0.00 67 1012.3
20260504190131 19 270 8.0 9.7 0.00 0.00 0.00 66 1012.3
20260504185628 19 234 11.3 11.3 0.00 0.00 0.00 66 1012.7
20260504185125 19 258 9.7 9.7 0.00 0.00 0.00 67 1012.3
20260504184620 19 258 11.3 11.3 0.00 0.00 0.00 66 1012.3
20260504184115 18 263 11.3 11.3 0.00 0.00 0.00 67 1012.3
20260504183613 18 270 11.3 11.3 0.00 0.00 0.00 68 1012.3
20260504183111 18 258 11.3 11.3 0.00 0.00 0.00 69 1012.3
20260504182608 18 260 12.9 12.9 0.00 0.00 0.00 70 1012.3
20260504182105 18 216 11.3 12.9 0.00 0.00 0.00 69 1012.7
20260504181602 18 248 16.1 17.7 0.00 0.00 0.00 68 1012.3
20260504181100 18 246 4.8 4.8 0.00 0.00 0.00 69 1012.7
20260504180559 17 240 9.7 9.7 0.00 0.00 0.00 70 1012.3
20260504180057 17 260 12.9 12.9 0.00 0.00 0.00 70 1012.3
20260504175554 18 216 6.4 6.4 0.00 0.00 0.00 66 1012.7
20260504175051 17 216 3.2 3.2 0.00 0.00 0.00 69 1012.3
20260504174549 17 216 3.2 3.2 0.00 0.00 0.00 69 1012.3
20260504174045 17 222 3.2 3.2 0.00 0.00 0.00 69 1012.3
20260504173542 17 230 11.3 11.3 0.00 0.00 0.00 70 1012.3
20260504173040 17 162 12.9 14.5 0.00 0.00 0.00 67 1012.3
20260504172536 17 228 4.8 4.8 0.00 0.00 0.00 71 1012.3
20260504172033 16 240 14.5 16.1 0.00 0.00 0.00 71 1012.0
20260504171529 16 217 9.7 11.3 0.00 0.00 0.00 72 1012.7
20260504171026 16 216 8.0 9.7 0.00 0.00 0.00 72 1012.7
20260504170522 16 210 8.0 8.0 0.00 0.00 0.00 72 1012.3
20260504160443 15 261 4.8 4.8 0.00 0.00 0.00 74 1012.0